Погода в Иваничах

Украина / Волынская область     50°38′10″N   24°21′31″E
В апреле 2022 года жителям России запретили посещать сайт meteo.paraplan.net по решению Генеральной прокуратуры. Аудитория сайта уменьшилась в 10 раз. Владельцы сайта не видят смысла в поддержке погодного сервера в таких условиях. Сайт будет закрыт в октябре.
темп.,
°C
ветер,
м/с
пор.,
м/с
влажн.,
%
обл.,
%
осадки,
мм/ч
давл.,
гПа
погр.,
м
3 октября, пн
пн300:00+10зсз61285100 0.1 1008641
03:00+9з6139096 0.3 1008565
06:00+8з71495100 0.2 1007629
09:00+9зсз81384100 0.3 10071087
12:00+9зсз91491100 0.9 10061069
15:00+9зсз91590100 2.2 1006952
18:00+10ссз101686100 1.3 10061045
21:00+8зсз81582100 1.3 1009921
4 октября, вт
вт400:00+8зсз81584100 0.0 1010767
03:00+8зсз81588100 0.0 1011731
06:00+7зсз71491100 0.0 1012631
09:00+8з81490100 0.0 1013760
12:00+10зсз81380100 0.0 1014948
15:00+11зсз71178100 0.1 10161185
18:00+11зсз7126881 0.1 1017748
21:00+11з71377100 0.1 1019723
5 октября, ср
ср500:00+9з6128630 0.0 1021399
03:00+7з512915 0.0 1022334
06:00+6з4119494 0.0 1023252
09:00+8зюз41087100 0.0 1024275
12:00+13зюз5869100 0.0 1024610
15:00+15зюз5756100 0.0 1023891
18:00+13юз4870100 0.0 1022222
21:00+10юз4118586 0.0 1023260
6 октября, чт
чт600:00+10юз4128398 0.0 1024314
03:00+9юз4128699 0.0 1024273
06:00+9юз4128677 0.0 1023270
09:00+11зюз51380100 0.0 1024355
12:00+15зюз61169100 0.0 1024563
15:00+18зсз696175 0.0 1024969
18:00+17зсз48765 0.0 1025186
21:00+14сз51080100 0.0 1028552
7 октября, пт
пт700:00+11зсз36935 0.0 1030119
03:00+9зсз34936 0.0 103170
06:00+8зсз229114 0.0 103119
09:00+10з128223 0.0 103163
12:00+14юз226113 0.0 1030535
15:00+16ююз22505 0.0 1028955
18:00+14ююв226331 0.0 102718
21:00+10ююв33765 0.0 102636